When you browse on this site, cookies collect data to enhance your experience and personalize the content and advertising you see.
Visit our Privacy Policy to learn more. By continuing to use the site, you agree to this use of cookies and data.
  • în România
  • Lista ţărilor
  • Pe 7 zile
  • Temperatura apei
  • Meteo pe hartă
  • Widget-uri
  • user-avatar
    Intrare

    Meteo pe oră la Gori

    Astăzi, 20 Septembrie, Vineri

    Timp Temperatura Precipitaţii Vânt Presiune Umiditate
    00:00 +16°C° 0 mm 1 m/s 702 mmHg 72%
    01:00 +15°C° 0 mm 1 m/s 701 mmHg 71%
    02:00 +15°C° 0 mm 1 m/s 701 mmHg 71%
    03:00 +14°C° 0 mm 1 m/s 701 mmHg 70%
    04:00 +14°C° 0 mm 2 m/s 700 mmHg 70%
    05:00 +14°C° 0 mm 2 m/s 700 mmHg 70%
    06:00 +14°C° 0 mm 2 m/s 700 mmHg 70%
    07:00 +16°C° 0 mm 3 m/s 700 mmHg 67%
    08:00 +19°C° 0 mm 3 m/s 700 mmHg 63%
    09:00 +21°C° 0 mm 4 m/s 700 mmHg 59%
    10:00 +23°C° 0 mm 5 m/s 700 mmHg 55%
    11:00 +25°C° 0 mm 5 m/s 699 mmHg 51%
    12:00 +27°C° 0 mm 6 m/s 699 mmHg 47%
    13:00 +27°C° 0 mm 6 m/s 698 mmHg 47%
    14:00 +27°C° 0 mm 5 m/s 698 mmHg 46%
    15:00 +27°C° 0 mm 5 m/s 698 mmHg 45%
    16:00 +25°C° 0 mm 4 m/s 697 mmHg 53%
    17:00 +24°C° 0 mm 3 m/s 697 mmHg 60%
    18:00 +21°C° 0 mm 2 m/s 697 mmHg 68%
    19:00 +19°C° 0 mm 2 m/s 696 mmHg 74%
    20:00 +18°C° 0 mm 2 m/s 696 mmHg 80%
    21:00 +18°C° 0 mm 1 m/s 696 mmHg 85%
    22:00 +17°C° 0 mm 2 m/s 696 mmHg 87%
    23:00 +16°C° 0 mm 3 m/s 696 mmHg 88%

    Mâine, 21 Septembrie, Sâmbătă

    Timp Temperatura Precipitaţii Vânt Presiune Umiditate
    00:00 +16°C° 0 mm 3 m/s 696 mmHg 90%
    01:00 +16°C° 0 mm 3 m/s 696 mmHg 90%
    02:00 +16°C° 0 mm 3 m/s 696 mmHg 90%
    03:00 +16°C° 0 mm 3 m/s 696 mmHg 90%
    04:00 +16°C° 0.1 mm 3 m/s 696 mmHg 90%
    05:00 +15°C° 0.1 mm 4 m/s 696 mmHg 91%
    06:00 +15°C° 0.1 mm 4 m/s 696 mmHg 91%
    07:00 +15°C° 0.1 mm 5 m/s 696 mmHg 87%
    08:00 +15°C° 0.1 mm 5 m/s 696 mmHg 83%
    09:00 +16°C° 0.1 mm 6 m/s 696 mmHg 78%
    10:00 +15°C° 0.1 mm 7 m/s 696 mmHg 79%
    11:00 +13°C° 0.1 mm 8 m/s 696 mmHg 79%
    12:00 +13°C° 0.1 mm 9 m/s 696 mmHg 79%
    13:00 +12°C° 0.2 mm 9 m/s 697 mmHg 77%
    14:00 +12°C° 0.2 mm 9 m/s 697 mmHg 74%
    15:00 +12°C° 0.2 mm 10 m/s 697 mmHg 72%
    16:00 +11°C° 0 mm 10 m/s 697 mmHg 75%
    17:00 +8°C° 0 mm 9 m/s 698 mmHg 79%
    18:00 +7°C° 0 mm 9 m/s 698 mmHg 82%
    19:00 +7°C° 0.1 mm 8 m/s 699 mmHg 82%
    20:00 +7°C° 0.1 mm 8 m/s 699 mmHg 83%
    21:00 +6°C° 0.1 mm 7 m/s 700 mmHg 83%
    22:00 +6°C° 0.1 mm 7 m/s 700 mmHg 84%
    23:00 +7°C° 0.1 mm 6 m/s 701 mmHg 86%

    Poimâine, 22 Septembrie, Duminică

    Timp Temperatura Precipitaţii Vânt Presiune Umiditate
    00:00 +7°C° 0.1 mm 6 m/s 701 mmHg 87%
    01:00 +7°C° 0.2 mm 5 m/s 701 mmHg 87%
    02:00 +7°C° 0.2 mm 5 m/s 701 mmHg 87%
    03:00 +7°C° 0.2 mm 4 m/s 702 mmHg 87%
    04:00 +6°C° 0.1 mm 4 m/s 702 mmHg 87%
    05:00 +6°C° 0.1 mm 4 m/s 702 mmHg 88%
    06:00 +7°C° 0.1 mm 3 m/s 702 mmHg 89%
    07:00 +7°C° 0 mm 4 m/s 702 mmHg 83%
    08:00 +8°C° 0 mm 4 m/s 703 mmHg 77%
    09:00 +9°C° 0 mm 5 m/s 703 mmHg 71%
    10:00 +12°C° 0 mm 5 m/s 703 mmHg 66%
    11:00 +13°C° 0 mm 6 m/s 703 mmHg 60%
    12:00 +14°C° 0 mm 6 m/s 703 mmHg 55%
    13:00 +15°C° 0 mm 6 m/s 702 mmHg 52%
    14:00 +15°C° 0 mm 6 m/s 702 mmHg 49%
    15:00 +16°C° 0 mm 5 m/s 702 mmHg 47%
    16:00 +14°C° 0 mm 4 m/s 702 mmHg 53%
    17:00 +13°C° 0 mm 3 m/s 702 mmHg 59%
    18:00 +12°C° 0 mm 2 m/s 702 mmHg 65%
    19:00 +10°C° 0 mm 2 m/s 702 mmHg 70%
    20:00 +10°C° 0 mm 1 m/s 702 mmHg 75%
    21:00 +9°C° 0 mm 1 m/s 703 mmHg 81%
    22:00 +9°C° 0 mm 1 m/s 703 mmHg 81%
    23:00 +8°C° 0 mm 1 m/s 703 mmHg 81%

    23 Septembrie, Luni

    Timp Temperatura Precipitaţii Vânt Presiune Umiditate
    00:00 +8°C° 0 mm 1 m/s 703 mmHg 81%
    01:00 +8°C° 0 mm 1 m/s 702 mmHg 81%
    02:00 +8°C° 0 mm 1 m/s 702 mmHg 81%
    03:00 +7°C° 0 mm 1 m/s 702 mmHg 81%
    04:00 +7°C° 0 mm 1 m/s 702 mmHg 81%
    05:00 +7°C° 0 mm 1 m/s 702 mmHg 81%
    06:00 +7°C° 0 mm 1 m/s 702 mmHg 81%
    07:00 +10°C° 0 mm 1 m/s 702 mmHg 72%
    08:00 +12°C° 0 mm 1 m/s 702 mmHg 62%
    09:00 +15°C° 0 mm 2 m/s 702 mmHg 52%
    10:00 +17°C° 0 mm 2 m/s 702 mmHg 47%
    11:00 +19°C° 0 mm 2 m/s 702 mmHg 41%
    12:00 +21°C° 0 mm 2 m/s 702 mmHg 35%
    13:00 +23°C° 0 mm 2 m/s 702 mmHg 34%
    14:00 +23°C° 0 mm 2 m/s 702 mmHg 33%
    15:00 +24°C° 0 mm 2 m/s 701 mmHg 32%
    16:00 +21°C° 0 mm 2 m/s 701 mmHg 38%
    17:00 +18°C° 0 mm 2 m/s 701 mmHg 44%
    18:00 +16°C° 0 mm 1 m/s 701 mmHg 50%
    19:00 +15°C° 0 mm 1 m/s 701 mmHg 56%
    20:00 +14°C° 0 mm 1 m/s 701 mmHg 61%
    21:00 +12°C° 0 mm 1 m/s 701 mmHg 66%
    22:00 +12°C° 0 mm 1 m/s 701 mmHg 67%
    23:00 +12°C° 0 mm 2 m/s 701 mmHg 68%

    24 Septembrie, Marţi

    Timp Temperatura Precipitaţii Vânt Presiune Umiditate
    00:00 +12°C° 0 mm 2 m/s 701 mmHg 68%
    01:00 +12°C° 0 mm 2 m/s 701 mmHg 69%
    02:00 +12°C° 0 mm 2 m/s 701 mmHg 70%
    03:00 +10°C° 0 mm 3 m/s 702 mmHg 71%
    04:00 +11°C° 0 mm 3 m/s 701 mmHg 71%
    05:00 +12°C° 0 mm 2 m/s 701 mmHg 71%
    06:00 +12°C° 0 mm 2 m/s 701 mmHg 71%
    07:00 +13°C° 0 mm 3 m/s 701 mmHg 67%
    08:00 +15°C° 0 mm 4 m/s 702 mmHg 62%
    09:00 +17°C° 0 mm 5 m/s 702 mmHg 58%
    10:00 +19°C° 0 mm 5 m/s 702 mmHg 57%
    11:00 +20°C° 0 mm 6 m/s 701 mmHg 57%
    12:00 +20°C° 0 mm 6 m/s 701 mmHg 56%
    13:00 +21°C° 0 mm 6 m/s 701 mmHg 55%
    14:00 +21°C° 0 mm 6 m/s 700 mmHg 54%
    15:00 +21°C° 0 mm 6 m/s 700 mmHg 53%
    16:00 +20°C° 0 mm 5 m/s 700 mmHg 61%
    17:00 +18°C° 0 mm 4 m/s 699 mmHg 68%
    18:00 +16°C° 0 mm 3 m/s 699 mmHg 76%
    19:00 +15°C° 0 mm 2 m/s 699 mmHg 79%
    20:00 +14°C° 0 mm 2 m/s 699 mmHg 82%
    21:00 +13°C° 0 mm 2 m/s 699 mmHg 86%
    22:00 +13°C° 0 mm 2 m/s 699 mmHg 85%
    23:00 +13°C° 0 mm 2 m/s 699 mmHg 84%

    25 Septembrie, Miercuri

    Timp Temperatura Precipitaţii Vânt Presiune Umiditate
    00:00 +13°C° 0 mm 2 m/s 699 mmHg 84%
    01:00 +13°C° 0 mm 1 m/s 699 mmHg 82%
    02:00 +13°C° 0 mm 1 m/s 699 mmHg 81%
    03:00 +12°C° 0 mm 1 m/s 698 mmHg 80%
    04:00 +12°C° 0 mm 1 m/s 698 mmHg 78%
    05:00 +12°C° 0 mm 1 m/s 698 mmHg 75%
    06:00 +12°C° 0 mm 1 m/s 698 mmHg 73%
    07:00 +15°C° 0 mm 1 m/s 699 mmHg 63%
    08:00 +19°C° 0 mm 1 m/s 699 mmHg 53%
    09:00 +22°C° 0 mm 1 m/s 699 mmHg 43%
    10:00 +24°C° 0 mm 1 m/s 699 mmHg 36%
    11:00 +27°C° 0 mm 1 m/s 700 mmHg 30%
    12:00 +29°C° 0 mm 2 m/s 700 mmHg 24%
    13:00 +30°C° 0 mm 1 m/s 700 mmHg 22%
    14:00 +31°C° 0 mm 1 m/s 700 mmHg 20%
    15:00 +31°C° 0 mm 1 m/s 699 mmHg 18%
    16:00 +28°C° 0 mm 1 m/s 699 mmHg 23%
    17:00 +26°C° 0 mm 1 m/s 699 mmHg 28%
    18:00 +23°C° 0 mm 1 m/s 699 mmHg 34%
    19:00 +22°C° 0 mm 1 m/s 699 mmHg 36%
    20:00 +21°C° 0 mm 1 m/s 699 mmHg 39%
    21:00 +20°C° 0 mm 1 m/s 699 mmHg 41%
    22:00 +19°C° 0 mm 1 m/s 699 mmHg 41%
    23:00 +19°C° 0 mm 1 m/s 699 mmHg 42%
    Arată mai mult